GW4126 Weather Reports


time (UTC)temp
F
wind
direction
speed
knots
gust
knots
rain 1hr
in
rain 24hr
in
rain mn
in
humidity
%
barometer
mb
20260506235529 52 287 3.5 8.7 0.00 0.00 0.00 66 1023.9
20260506235029 52 254 5.2 9.6 0.00 0.00 0.00 66 1024.0
20260506234541 52 253 7.0 9.6 0.00 0.00 0.00 66 1023.9
20260506234029 52 275 6.1 9.6 0.00 0.00 0.00 67 1023.9
20260506233531 52 288 5.2 8.7 0.00 0.00 0.00 65 1023.9
20260506233039 52 279 5.2 9.6 0.00 0.00 0.00 63 1023.8
20260506232529 52 279 6.1 9.6 0.00 0.00 0.00 63 1023.8
20260506232029 52 267 6.1 8.7 0.00 0.00 0.00 63 1023.7
20260506231602 52 289 4.3 10.4 0.00 0.00 0.00 67 1023.7
20260506231030 52 287 6.1 10.4 0.00 0.00 0.00 66 1023.7
20260506230529 52 259 7.0 10.4 0.00 0.00 0.00 65 1023.7
20260506230103 53 262 4.3 8.7 0.00 0.00 0.00 65 1023.6
20260506225529 53 290 5.2 10.4 0.00 0.00 0.00 65 1023.7
20260506225030 52 274 5.2 10.4 0.00 0.00 0.00 65 1023.6
20260506224543 52 288 6.1 9.6 0.00 0.00 0.00 64 1023.7
20260506224029 52 259 6.1 9.6 0.00 0.00 0.00 65 1023.6
20260506223529 52 259 5.2 10.4 0.00 0.00 0.00 65 1023.7
20260506223039 52 275 7.8 10.4 0.00 0.00 0.00 63 1023.6
20260506222530 53 277 7.0 10.4 0.00 0.00 0.00 63 1023.5
20260506222030 53 260 7.0 9.6 0.00 0.00 0.00 63 1023.6
20260506221605 53 280 5.2 9.6 0.00 0.00 0.00 65 1023.6
20260506221030 53 322 7.0 9.6 0.00 0.00 0.00 63 1023.7
20260506220529 53 284 6.1 8.7 0.00 0.00 0.00 63 1023.5
20260506220050 52 277 6.1 8.7 0.00 0.00 0.00 63 1023.6
20260506215531 52 285 7.0 8.7 0.00 0.00 0.00 62 1023.5
20260506215030 52 294 6.1 8.7 0.00 0.00 0.00 63 1023.5
20260506214549 52 265 5.2 8.7 0.00 0.00 0.00 63 1023.5
20260506214029 52 283 7.0 8.7 0.00 0.00 0.00 64 1023.6
20260506213530 52 303 6.1 9.6 0.00 0.00 0.00 63 1023.6
20260506213102 52 272 6.1 9.6 0.00 0.00 0.00 62 1023.6
20260506212530 53 260 7.0 10.4 0.00 0.00 0.00 62 1023.5
20260506212030 53 302 7.0 10.4 0.00 0.00 0.00 62 1023.5
20260506211542 53 278 7.8 10.4 0.00 0.00 0.00 61 1023.6
20260506211030 53 301 6.1 9.6 0.00 0.00 0.00 59 1023.5
20260506210530 54 286 6.1 9.6 0.00 0.00 0.00 61 1023.4
20260506210055 53 313 6.1 9.6 0.00 0.00 0.00 59 1023.3
20260506205530 53 261 6.1 10.4 0.00 0.00 0.00 60 1023.2
20260506205029 53 281 5.2 10.4 0.00 0.00 0.00 59 1023.2
20260506204538 53 279 5.2 8.7 0.00 0.00 0.00 59 1023.2
20260506204030 53 346 5.2 9.6 0.00 0.00 0.00 58 1023.0
20260506203529 53 270 5.2 9.6 0.00 0.00 0.00 63 1023.0
20260506203037 53 261 4.3 9.6 0.00 0.00 0.00 61 1023.1
20260506202529 53 235 5.2 9.6 0.00 0.00 0.00 64 1023.0
20260506202032 52 267 7.0 9.6 0.00 0.00 0.00 62 1022.9
20260506201548 52 263 5.2 9.6 0.00 0.00 0.00 64 1022.9
20260506201030 53 296 7.0 9.6 0.00 0.00 0.00 61 1022.8
20260506200530 52 245 2.6 9.6 0.00 0.00 0.00 62 1022.8
20260506200043 52 260 4.3 9.6 0.00 0.00 0.00 60 1022.9
20260506195529 52 301 7.0 10.4 0.00 0.00 0.00 63 1022.9
20260506195030 52 292 7.0 10.4 0.00 0.00 0.00 63 1022.9
20260506194544 53 298 7.0 10.4 0.00 0.00 0.00 62 1022.9
20260506194032 52 267 6.1 10.4 0.00 0.00 0.00 62 1022.8
20260506193529 52 293 7.8 10.4 0.00 0.00 0.00 64 1022.8
20260506193041 52 295 7.0 11.3 0.00 0.00 0.00 64 1022.7
20260506192532 52 298 5.2 11.3 0.00 0.00 0.00 65 1022.7
20260506192032 51 316 5.2 10.4 0.00 0.00 0.00 66 1022.7
20260506191548 51 290 6.1 10.4 0.00 0.00 0.00 65 1022.7
20260506191030 52 282 7.0 9.6 0.00 0.00 0.00 65 1022.7
20260506190529 52 311 6.1 9.6 0.00 0.00 0.00 65 1022.7
20260506190044 52 327 7.0 9.6 0.00 0.00 0.00 65 1022.5
20260506185531 51 333 5.2 10.4 0.00 0.00 0.00 64 1022.5
20260506185029 50 347 7.0 10.4 0.00 0.00 0.00 65 1022.5
20260506184556 51 355 7.8 10.4 0.00 0.00 0.00 66 1022.5
20260506184030 51 335 4.3 9.6 0.00 0.00 0.00 65 1022.5
20260506183530 50 334 4.3 9.6 0.00 0.00 0.00 65 1022.5
20260506183048 50 330 5.2 9.6 0.00 0.00 0.00 66 1022.4
20260506182530 50 344 5.2 9.6 0.00 0.00 0.00 66 1022.4
20260506182033 50 345 5.2 9.6 0.00 0.00 0.00 65 1022.4
20260506181546 50 310 7.0 10.4 0.00 0.00 0.00 66 1022.4
20260506181030 50 340 6.1 10.4 0.00 0.00 0.00 67 1022.4
20260506180531 49 317 7.0 10.4 0.00 0.00 0.00 68 1022.5
20260506180047 49 319 7.8 10.4 0.00 0.00 0.00 68 1022.5
20260506175530 49 320 7.0 11.3 0.00 0.00 0.00 67 1022.5
20260506175029 49 296 7.0 11.3 0.00 0.00 0.00 67 1022.4
20260506174540 49 326 5.2 8.7 0.00 0.00 0.00 67 1022.4
20260506174029 49 304 3.5 9.6 0.00 0.00 0.00 68 1022.5
20260506173530 49 317 6.1 10.4 0.00 0.00 0.00 67 1022.5
20260506173044 50 346 6.1 10.4 0.00 0.00 0.00 67 1022.4
20260506172529 50 329 6.1 11.3 0.00 0.00 0.00 69 1022.5
20260506172033 49 309 7.8 11.3 0.00 0.00 0.00 69 1022.6
20260506171555 50 319 7.0 11.3 0.00 0.00 0.00 68 1022.5
20260506171029 49 299 6.1 9.6 0.00 0.00 0.00 68 1022.5
20260506170532 48 321 5.2 10.4 0.00 0.00 0.00 70 1022.5
20260506170047 48 330 4.3 10.4 0.00 0.00 0.00 70 1022.4
20260506165534 48 321 7.8 10.4 0.00 0.00 0.00 71 1022.3
20260506165030 48 323 7.8 9.6 0.00 0.00 0.00 72 1022.5
20260506164544 48 319 6.1 11.3 0.00 0.00 0.00 72 1022.5
20260506164029 48 333 7.8 10.4 0.00 0.00 0.00 72 1022.4
20260506163529 48 316 4.3 8.7 0.00 0.00 0.00 74 1022.4
20260506163042 48 304 6.1 8.7 0.00 0.00 0.00 74 1022.4
20260506162530 47 290 4.3 9.6 0.00 0.00 0.00 74 1022.3
20260506162030 47 340 6.1 9.6 0.00 0.00 0.00 74 1022.2
20260506161543 47 331 4.3 10.4 0.00 0.00 0.00 74 1022.3
20260506161032 47 318 6.1 10.4 0.00 0.00 0.00 75 1022.2
20260506160533 47 318 6.1 9.6 0.00 0.00 0.00 75 1022.2
20260506160045 47 306 4.3 7.8 0.00 0.00 0.00 75 1022.2
20260506155529 47 324 4.3 8.7 0.00 0.00 0.00 76 1022.1
20260506155030 47 288 5.2 9.6 0.00 0.00 0.00 76 1022.0
20260506154546 47 304 5.2 10.4 0.00 0.00 0.00 75 1022.0
20260506154031 46 313 7.0 11.3 0.00 0.00 0.00 75 1021.9
20260506153529 46 321 7.8 11.3 0.00 0.00 0.00 75 1021.9
20260506153040 46 289 7.0 11.3 0.00 0.00 0.00 75 1021.9
20260506152531 46 307 7.0 11.3 0.00 0.00 0.00 75 1021.9
20260506152030 46 288 7.8 12.2 0.00 0.00 0.00 75 1021.8
20260506151542 46 276 8.7 12.2 0.00 0.00 0.00 75 1021.8
20260506151029 46 297 8.7 12.2 0.00 0.00 0.00 75 1021.8
20260506150530 46 291 7.0 13.0 0.00 0.00 0.00 75 1021.8
20260506150039 46 304 8.7 13.0 0.00 0.00 0.00 76 1021.8
20260506145531 46 310 6.1 10.4 0.00 0.00 0.00 76 1021.7
20260506145030 46 313 5.2 10.4 0.00 0.00 0.00 76 1021.7
20260506144558 46 307 6.1 9.6 0.00 0.00 0.00 76 1021.6
20260506144032 46 300 5.2 9.6 0.00 0.00 0.00 76 1021.5
20260506143531 46 303 7.8 11.3 0.00 0.00 0.00 76 1021.5
20260506143045 46 309 7.0 11.3 0.00 0.00 0.00 76 1021.4
20260506142530 46 319 7.0 11.3 0.00 0.00 0.00 76 1021.5
20260506142029 46 314 7.8 11.3 0.00 0.00 0.00 76 1021.4
20260506141538 46 308 7.8 11.3 0.00 0.00 0.00 75 1021.4
20260506141030 46 310 7.0 12.2 0.00 0.00 0.00 75 1021.3
20260506140530 46 315 7.8 12.2 0.00 0.00 0.00 75 1021.3
20260506140042 46 311 6.1 9.6 0.00 0.00 0.00 75 1021.3
20260506135533 46 299 5.2 10.4 0.00 0.00 0.00 75 1021.3
20260506135029 46 327 5.2 10.4 0.00 0.00 0.00 75 1021.1
20260506134546 46 309 7.0 10.4 0.00 0.00 0.00 75 1021.1
20260506134031 46 309 6.1 10.4 0.00 0.00 0.00 76 1021.0
20260506133529 46 333 6.1 9.6 0.00 0.00 0.00 76 1021.0
20260506133045 46 315 5.2 11.3 0.00 0.00 0.00 76 1020.9
20260506132534 46 318 4.3 11.3 0.00 0.00 0.00 76 1020.8
20260506132029 46 309 8.7 11.3 0.00 0.00 0.00 76 1020.8
20260506131546 46 309 7.0 11.3 0.00 0.00 0.00 76 1020.7
20260506131031 46 297 6.1 9.6 0.00 0.00 0.00 76 1020.8
20260506130529 46 331 7.0 9.6 0.00 0.00 0.00 76 1020.8
20260506130049 46 339 7.0 11.3 0.00 0.00 0.00 76 1020.8
20260506125529 46 325 7.8 11.3 0.00 0.00 0.00 76 1020.7
20260506125030 46 323 7.8 11.3 0.00 0.00 0.00 77 1020.8
20260506124543 46 323 7.8 11.3 0.00 0.00 0.00 77 1020.8
20260506124033 46 324 7.8 13.0 0.00 0.00 0.00 77 1020.7
20260506123530 47 303 8.7 13.0 0.00 0.00 0.00 77 1020.7
20260506123045 47 309 5.2 9.6 0.00 0.00 0.00 78 1020.8
20260506122530 47 310 5.2 7.8 0.00 0.00 0.00 78 1020.6
20260506122032 47 308 4.3 7.0 0.00 0.00 0.00 78 1020.6
20260506121541 47 321 3.5 7.0 0.00 0.00 0.00 78 1020.6
20260506121029 47 324 3.5 7.0 0.00 0.00 0.00 77 1020.6
20260506120532 47 322 3.5 7.0 0.00 0.00 0.00 77 1020.5
20260506120040 47 303 4.3 8.7 0.00 0.00 0.00 77 1020.4
20260506115530 47 312 3.5 8.7 0.00 0.00 0.00 77 1020.3
20260506115029 47 315 4.3 7.8 0.00 0.00 0.00 77 1020.3
20260506114551 47 300 5.2 7.8 0.00 0.00 0.00 77 1020.3
20260506114029 47 325 3.5 7.0 0.00 0.00 0.00 77 1020.3
20260506113530 47 300 5.2 8.7 0.00 0.00 0.00 77 1020.3
20260506113042 47 325 5.2 8.7 0.00 0.00 0.00 77 1020.2
20260506112531 47 309 5.2 8.7 0.00 0.00 0.00 78 1020.2
20260506112029 47 310 5.2 7.8 0.00 0.00 0.00 77 1020.1
20260506111539 47 303 3.5 9.6 0.00 0.00 0.00 78 1020.1
20260506111029 47 312 4.3 9.6 0.00 0.00 0.00 78 1020.0
20260506110529 47 317 3.5 8.7 0.00 0.00 0.00 78 1020.1
20260506110042 47 316 4.3 7.0 0.00 0.00 0.00 78 1020.1
20260506105531 47 332 2.6 7.0 0.00 0.00 0.00 79 1020.0
20260506105029 47 313 3.5 7.0 0.00 0.00 0.00 79 1020.0
20260506104544 47 323 4.3 6.1 0.00 0.00 0.00 79 1020.0
20260506104029 47 341 3.5 8.7 0.00 0.00 0.00 79 1020.0
20260506103529 47 337 5.2 9.6 0.00 0.00 0.00 78 1019.9
20260506103038 47 325 4.3 9.6 0.00 0.00 0.00 78 1020.0
20260506102529 47 327 7.0 9.6 0.00 0.00 0.00 78 1019.9
20260506102029 46 322 5.2 8.7 0.00 0.00 0.00 79 1020.0
20260506101545 46 317 6.1 8.7 0.00 0.00 0.00 79 1020.0
20260506101030 46 321 6.1 8.7 0.00 0.00 0.00 80 1020.0
20260506100532 46 325 5.2 9.6 0.00 0.00 0.00 81 1020.0
20260506100046 45 306 5.2 9.6 0.00 0.00 0.00 81 1020.1
20260506095530 45 335 4.3 6.1 0.00 0.00 0.00 82 1019.9
20260506095030 45 319 2.6 6.1 0.00 0.00 0.00 82 1020.0
20260506094542 45 322 1.7 4.3 0.00 0.00 0.00 82 1019.9
20260506094029 45 322 1.7 4.3 0.00 0.00 0.00 81 1019.8
20260506093529 45 351 1.7 2.6 0.00 0.00 0.00 81 1019.8
20260506093041 45 351 1.7 2.6 0.00 0.00 0.00 81 1019.7
20260506092533 45 351 1.7 2.6 0.00 0.00 0.00 80 1019.7
20260506092029 45 351 1.7 2.6 0.00 0.00 0.00 80 1019.6
20260506091541 46 351 1.7 4.3 0.00 0.00 0.00 80 1019.6
20260506091031 46 351 1.7 5.2 0.00 0.00 0.00 80 1019.6
20260506090530 46 351 3.5 8.7 0.00 0.00 0.00 80 1019.6
20260506090037 46 334 4.3 9.6 0.00 0.00 0.00 79 1019.5
20260506085530 46 325 4.3 9.6 0.00 0.00 0.00 80 1019.6
20260506085030 46 318 6.1 10.4 0.00 0.00 0.00 79 1019.6
20260506084543 46 355 4.3 10.4 0.00 0.00 0.00 80 1019.6
20260506084030 46 310 7.0 10.4 0.00 0.00 0.00 79 1019.6
20260506083529 46 321 4.3 7.8 0.00 0.00 0.00 79 1019.4
20260506083050 46 336 3.5 7.8 0.00 0.00 0.00 78 1019.5
20260506082529 46 345 4.3 7.8 0.00 0.00 0.00 78 1019.5
20260506082029 46 339 5.2 7.8 0.00 0.00 0.00 78 1019.4
20260506081543 46 333 2.6 7.8 0.00 0.00 0.00 77 1019.4
20260506081030 46 335 2.6 7.8 0.00 0.00 0.00 77 1019.3
20260506080530 46 320 3.5 7.8 0.00 0.00 0.00 77 1019.3
20260506073529 47 336 3.5 7.8 0.00 0.00 0.00 75 1019.1
20260506073049 47 333 3.5 7.8 0.00 0.00 0.00 75 1019.0
20260506072529 47 329 5.2 7.8 0.00 0.00 0.00 75 1019.0
20260506072031 47 342 4.3 7.8 0.00 0.00 0.00 75 1018.9
20260506071552 47 333 4.3 7.8 0.00 0.00 0.00 74 1018.9
20260506071029 47 330 5.2 8.7 0.00 0.00 0.00 74 1018.8
20260506070529 47 327 5.2 8.7 0.00 0.00 0.00 74 1018.8
20260506062029 47 317 8.7 12.2 0.00 0.00 0.00 75 1018.7
20260506061541 47 307 8.7 12.2 0.00 0.00 0.00 75 1018.6
20260506061030 47 320 7.0 12.2 0.00 0.00 0.00 75 1018.7
20260506060530 47 323 8.7 14.8 0.00 0.00 0.00 75 1018.7
20260506051030 48 306 8.7 18.2 0.00 0.00 0.00 73 1018.4
20260506050529 48 330 11.3 18.2 0.00 0.00 0.00 73 1018.3
20260506045029 49 308 11.3 15.6 0.00 0.00 0.00 74 1018.2
20260506044545 49 298 8.7 16.5 0.00 0.00 0.00 74 1018.1
20260506044030 49 320 12.2 16.5 0.00 0.00 0.00 74 1018.1
20260506043529 49 302 9.6 14.8 0.00 0.00 0.00 74 1018.0
20260506043044 49 300 8.7 14.8 0.00 0.00 0.00 74 1018.0
20260506042531 49 311 8.7 13.9 0.00 0.00 0.00 75 1017.8
20260506042031 49 297 9.6 13.9 0.00 0.00 0.00 75 1017.9
20260506041548 49 314 8.7 13.9 0.00 0.00 0.00 75 1017.7
20260506041030 50 294 8.7 13.9 0.00 0.00 0.00 74 1017.6
20260506040530 49 299 7.8 13.0 0.00 0.00 0.00 74 1017.7
20260506040044 49 277 8.7 13.0 0.00 0.00 0.00 74 1017.4
20260506035533 50 284 8.7 13.9 0.00 0.00 0.00 73 1017.4
20260506035030 50 306 8.7 13.9 0.00 0.00 0.00 73 1017.3
20260506034542 50 312 9.6 13.9 0.00 0.00 0.00 72 1017.1
20260506034029 50 268 8.7 13.9 0.00 0.00 0.00 72 1017.0
20260506033529 51 287 7.0 14.8 0.00 0.00 0.00 70 1017.0
20260506033042 51 294 7.8 14.8 0.00 0.00 0.00 71 1016.9
20260506032529 51 281 7.8 14.8 0.00 0.00 0.00 70 1017.0
20260506032031 52 277 8.7 14.8 0.00 0.00 0.00 70 1016.9
20260506031544 52 309 9.6 14.8 0.00 0.00 0.00 70 1016.8
20260506031029 53 288 7.0 14.8 0.00 0.00 0.00 69 1016.9
20260506030532 53 265 5.2 12.2 0.00 0.00 0.00 68 1016.7
20260506030058 53 310 7.8 12.2 0.00 0.00 0.00 68 1016.7
20260506025530 54 281 7.8 12.2 0.00 0.00 0.00 66 1016.7
20260506025033 54 300 8.7 12.2 0.00 0.00 0.00 65 1016.7
20260506024552 54 298 7.8 12.2 0.00 0.00 0.00 65 1016.6
20260506024030 54 309 7.0 12.2 0.00 0.00 0.00 64 1016.6
20260506023530 55 275 8.7 13.9 0.00 0.00 0.00 63 1016.5
20260506023041 55 281 10.4 13.9 0.00 0.00 0.00 62 1016.5
20260506022529 55 280 7.0 13.0 0.00 0.00 0.00 62 1016.4
20260506022029 56 304 7.0 14.8 0.00 0.00 0.00 61 1016.4
20260506021541 56 284 8.7 14.8 0.00 0.00 0.00 59 1016.5
20260506021030 56 294 9.6 13.9 0.00 0.00 0.00 58 1016.4
20260506020534 57 286 8.7 14.8 0.00 0.00 0.00 58 1016.3
20260506020038 57 284 10.4 14.8 0.00 0.00 0.00 57 1016.3
20260506015531 57 276 8.7 14.8 0.00 0.00 0.00 56 1016.3
20260506015029 58 265 8.7 13.0 0.00 0.00 0.00 56 1016.3
20260506014555 58 269 7.0 13.0 0.00 0.00 0.00 56 1016.2
20260506014030 57 265 8.7 14.8 0.00 0.00 0.00 56 1016.0
20260506013530 57 301 10.4 14.8 0.00 0.00 0.00 56 1016.0
20260506013048 58 300 9.6 14.8 0.00 0.00 0.00 55 1015.9
20260506012529 58 274 10.4 13.9 0.00 0.00 0.00 55 1015.8
20260506012030 58 266 9.6 13.9 0.00 0.00 0.00 55 1015.8
20260506011542 58 273 7.8 14.8 0.00 0.00 0.00 57 1015.8
20260506011033 59 265 8.7 15.6 0.00 0.00 0.00 56 1015.9
20260506010531 59 289 10.4 15.6 0.00 0.00 0.00 55 1016.0
20260506010051 59 271 8.7 13.9 0.00 0.00 0.00 56 1016.0
20260506005531 60 296 8.7 14.8 0.00 0.00 0.00 56 1015.9
20260506005029 60 267 9.6 14.8 0.00 0.00 0.00 58 1015.9
20260506004548 60 281 7.0 13.0 0.00 0.00 0.00 57 1015.9
20260506004029 60 298 8.7 13.0 0.00 0.00 0.00 56 1015.9
20260506003529 60 302 7.0 13.0 0.00 0.00 0.00 56 1015.8
20260506003042 60 286 8.7 13.9 0.00 0.00 0.00 54 1015.9
20260506002530 61 272 10.4 13.9 0.00 0.00 0.00 54 1015.9
20260506002029 61 286 7.8 14.8 0.00 0.00 0.00 56 1015.9
20260506001537 61 273 9.6 14.8 0.00 0.00 0.00 54 1015.9
20260506001031 61 254 9.6 14.8 0.00 0.00 0.00 58 1015.9
20260506000531 61 286 10.4 14.8 0.00 0.00 0.00 57 1015.8
20260506000043 61 285 9.6 15.6 0.00 0.00 0.00 57 1015.8